Vorticity
15 17 19 23 26 21 15 14 13 13 14 13 13 11 11 17 12 16 13 14 7 72 9 8 19 -0 16 19 -19 32 19 -1 20 3 12 -6 -7 -2 12 6 26 -3 15 15 17 11 11 6 7 10 5 -3 -2 4
18 22 30 28 20 16 13 12 12 11 10 11 12 13 14 17 17 17 12 11 16 68 5 2 23 14 -3 7 30 -10 35 26 35 28 8 3 7 -1 -15 3 9 13 16 21 4 -3 -2 -2 2 9 13 14 14 11
29 30 26 19 16 16 12 12 11 11 11 13 12 14 12 15 17 16 11 14 25 33 6 9 21 19 22 10 -8 26 7 -1 16 27 15 24 20 28 10 -15 9 8 18 8 5 14 15 20 25 24 22 11 1 -2
26 23 18 16 16 14 13 12 12 9 10 10 13 13 13 13 13 11 16 16 39 29 4 6 21 11 4 3 4 12 23 26 8 5 24 16 4 15 26 23 1 0 1 -9 4 11 5 -2 -6 -7 -6 -7 -10 -7
23 21 17 15 14 13 12 12 12 15 15 14 13 11 11 11 15 13 14 29 24 33 10 3 18 17 9 14 3 15 7 4 10 7 7 23 33 32 13 9 2 -2 2 4 5 -7 -9 -6 -4 -6 -9 -1 14 20
16 18 17 16 15 15 14 16 18 17 13 14 15 14 13 15 16 16 15 18 31 30 9 10 21 21 15 3 5 1 4 3 20 21 17 7 12 16 24 25 19 15 17 16 22 29 21 13 4 3 8 26 31 31
29 21 21 20 20 20 15 18 14 12 19 21 20 18 16 17 21 19 26 22 25 18 15 13 11 34 6 8 -4 -0 -2 6 1 12 17 24 22 18 22 20 21 23 26 28 32 34 38 35 32 31 27 20 18 11
31 30 19 16 22 10 6 8 11 6 20 14 12 18 23 28 24 24 25 14 18 21 15 9 7 20 27 30 10 6 3 11 15 6 0 3 13 3 4 8 11 10 12 16 17 20 19 16 17 17 14 11 10 9
13 32 33 26 5 8 9 14 28 26 16 10 8 21 41 37 25 15 11 17 14 15 20 7 13 7 22 8 29 31 17 7 5 18 16 8 8 3 8 7 11 10 13 13 11 10 12 11 8 6 6 7 8 8
8 11 12 5 12 10 22 32 26 21 12 11 27 46 48 15 14 16 13 20 12 21 16 15 3 6 3 12 -4 8 12 10 8 13 7 15 15 12 11 15 9 10 9 7 4 4 4 4 5 9 11 10 9 8
14 8 11 16 10 24 15 11 13 7 12 33 41 54 4 13 18 9 18 12 24 19 5 13 10 -3 16 18 15 1 9 14 11 9 7 7 12 9 7 7 6 6 7 7 7 9 12 13 12 11 10 9 8 8
18 14 17 17 27 14 17 10 8 19 39 25 45 -10 7 13 15 13 13 14 23 17 8 8 12 11 11 12 12 18 10 10 9 8 11 9 9 11 11 12 14 15 17 18 17 14 11 8 7 7 6 7 7 8
32 26 20 13 5 7 12 -2 14 45 37 15 21 13 9 21 17 18 9 18 24 14 9 16 15 8 18 12 14 17 17 12 16 17 17 18 17 14 13 13 14 13 13 11 7 5 5 7 7 6 6 5 2 4
8 10 7 12 11 11 12 3 31 40 12 15 19 6 15 16 12 17 9 17 17 8 8 15 18 10 15 13 17 14 21 18 25 18 17 16 13 12 11 8 5 4 6 8 9 8 6 5 7 8 10 10 8 7
14 10 17 12 11 10 15 11 47 3 14 17 19 14 11 14 13 14 15 8 26 10 10 12 12 9 13 11 14 15 13 11 11 13 8 9 8 9 10 11 11 11 11 11 12 12 12 10 7 9 8 8 10 13
11 14 17 21 16 13 15 13 46 1 16 17 11 20 -1 12 14 12 14 10 23 12 10 8 10 6 8 3 7 10 11 13 14 13 16 19 18 15 15 13 11 10 9 8 7 7 8 10 11 14 17 18 17 12
6 12 18 11 30 17 13 6 16 45 5 18 15 28 16 10 10 12 16 12 11 17 8 5 4 7 5 7 9 9 19 20 22 14 4 2 -1 2 3 7 8 9 10 12 15 18 22 20 14 10 7 7 9 9
15 12 11 5 17 24 11 16 18 40 17 -9 3 8 27 18 15 9 9 7 8 11 17 13 13 20 15 17 21 15 13 7 3 1 2 0 2 6 8 13 16 16 16 15 9 4 6 5 2 3 12 14 15 20
19 16 9 12 4 22 13 15 13 25 33 21 -5 -4 4 21 25 9 13 9 16 21 23 19 24 14 19 11 11 4 -0 1 2 2 4 4 4 14 19 23 18 9 8 6 3 2 6 5 4 14 18 16 14 12
16 20 13 9 16 10 29 13 8 8 11 22 27 14 7 11 10 15 18 27 21 17 8 12 7 8 10 6 5 5 4 4 4 5 2 12 15 16 21 11 -2 -3 -4 -4 2 7 3 5 19 14 15 12 10 10
25 18 15 14 10 16 19 21 10 11 -1 -2 14 25 26 11 11 10 13 11 8 11 11 -1 4 7 4 2 2 3 6 7 8 9 13 14 13 12 11 5 3 4 2 7 4 2 15 11 16 14 13 17 29 38
29 20 19 13 12 31 6 15 17 14 20 17 15 11 15 17 19 15 8 13 12 7 14 8 4 3 3 10 12 17 14 14 12 11 10 8 5 2 -0 2 10 8 2 5 20 17 17 21 12 22 33 35 32 30
26 22 12 11 23 36 3 4 7 8 5 6 11 18 11 17 10 12 20 12 5 7 16 14 8 7 11 9 11 15 13 10 10 8 7 7 11 11 6 1 -3 9 28 11 17 24 14 17 35 33 32 35 36 30
22 21 16 21 17 27 34 5 6 5 5 4 12 30 19 10 16 12 15 17 16 17 8 2 9 8 1 8 10 8 10 12 12 13 11 7 1 -2 1 -2 29 21 17 19 20 12 22 41 34 28 22 15 13 11
18 13 22 17 9 18 28 26 12 6 6 13 45 29 20 14 11 13 3 9 14 16 17 18 16 16 13 9 8 9 7 7 4 1 1 2 3 7 12 41 24 23 15 17 12 15 27 17 20 19 17 12 9 9
14 16 21 17 2 3 19 20 17 17 10 21 27 21 19 13 12 13 17 7 2 2 3 4 5 8 10 6 6 16 14 12 13 9 14 16 18 36 20 22 21 16 16 12 15 16 14 15 15 13 8 9 14 18
12 14 20 17 15 10 7 12 27 14 7 10 17 7 11 17 21 22 24 21 21 19 16 13 9 10 9 18 21 22 12 13 20 18 19 18 14 33 22 18 19 14 11 9 13 18 19 12 9 9 13 16 20 18
15 11 12 22 16 11 12 10 15 24 12 11 13 16 10 12 9 7 5 10 14 15 17 20 22 23 22 18 12 8 6 10 13 11 9 11 33 15 16 20 13 9 6 12 16 16 12 11 10 12 16 20 19 15
14 14 10 14 26 21 11 11 17 31 17 7 7 20 18 21 20 9 3 5 12 2 9 8 5 7 8 12 19 16 18 19 18 19 26 25 15 9 13 14 12 8 11 16 17 14 10 10 10 14 18 20 17 14
10 15 11 11 19 25 20 13 13 31 20 5 2 13 17 18 15 12 2 11 11 6 12 14 13 21 13 16 16 13 9 8 13 14 14 14 16 13 14 12 9 10 14 17 16 14 12 9 12 16 18 20 16 12
15 16 13 10 15 23 27 17 12 27 22 5 2 5 6 15 24 27 25 18 13 13 9 16 11 16 13 12 12 14 15 20 19 18 18 17 13 14 14 11 10 11 16 16 13 14 12 10 13 18 19 18 15 11
20 13 13 10 13 20 29 25 13 19 24 6 3 3 8 9 8 7 9 12 13 19 13 15 14 13 14 9 10 10 10 11 11 13 19 22 19 16 14 10 7 12 13 15 13 13 11 9 14 18 19 18 15 12
19 10 12 9 12 18 24 33 27 21 17 9 7 5 10 8 9 16 17 15 15 12 12 13 11 9 7 5 5 5 6 6 7 7 8 11 17 20 17 12 11 12 13 14 12 12 12 11 11 15 20 20 16 12
Height
5489 5475 5463 5452 5445 5438 5433 5426 5421 5415 5411 5407 5403 5400 5397 5395 5392 5392 5392 5390 5388 5389 5402 5409 5416 5425 5431 5437 5442 5453 5465 5469 5479 5488 5497 5506 5514 5523 5532 5540 5548 5555 5559 5565 5571 5574 5579 5585 5592 5599 5602 5602 5605 5607
5467 5455 5444 5436 5431 5426 5421 5416 5411 5407 5402 5398 5395 5392 5389 5386 5385 5385 5385 5382 5380 5383 5395 5401 5410 5419 5427 5433 5440 5446 5453 5464 5470 5478 5489 5497 5505 5514 5523 5531 5538 5543 5549 5555 5561 5566 5570 5575 5579 5583 5586 5588 5591 5593
5447 5436 5429 5423 5419 5415 5410 5406 5402 5398 5394 5390 5387 5384 5381 5379 5378 5378 5378 5376 5374 5380 5389 5397 5404 5412 5420 5428 5433 5439 5447 5456 5464 5474 5481 5488 5497 5507 5514 5521 5528 5534 5540 5544 5548 5553 5558 5562 5566 5570 5574 5576 5579 5580
5431 5424 5418 5413 5408 5404 5399 5396 5392 5388 5385 5381 5378 5376 5373 5371 5370 5371 5371 5370 5370 5375 5384 5392 5399 5407 5414 5423 5429 5437 5443 5451 5460 5468 5474 5481 5490 5496 5505 5511 5517 5524 5530 5536 5540 5544 5547 5550 5553 5557 5560 5562 5565 5566
5419 5413 5408 5403 5398 5393 5389 5386 5382 5378 5375 5372 5369 5367 5365 5364 5363 5364 5364 5364 5366 5371 5380 5387 5394 5402 5410 5419 5427 5434 5441 5446 5452 5458 5465 5472 5479 5488 5495 5502 5507 5513 5520 5525 5529 5532 5535 5539 5541 5543 5546 5548 5550 5551
5409 5402 5397 5392 5388 5384 5380 5376 5372 5368 5365 5363 5360 5357 5356 5356 5356 5356 5358 5360 5361 5366 5374 5381 5389 5396 5405 5414 5422 5429 5435 5441 5447 5452 5458 5464 5471 5479 5484 5489 5494 5500 5505 5510 5515 5520 5523 5526 5528 5530 5532 5534 5535 5537
5399 5393 5387 5383 5379 5375 5372 5367 5363 5359 5356 5353 5350 5347 5347 5347 5348 5350 5353 5356 5358 5363 5371 5378 5385 5393 5401 5409 5417 5425 5431 5438 5443 5447 5454 5460 5466 5471 5475 5480 5485 5489 5494 5498 5503 5507 5510 5512 5515 5518 5520 5522 5524 5526
5391 5385 5380 5376 5373 5370 5365 5361 5356 5351 5347 5344 5341 5339 5337 5338 5341 5344 5348 5351 5356 5361 5367 5375 5384 5391 5398 5406 5413 5421 5427 5434 5439 5444 5450 5455 5461 5465 5468 5473 5478 5482 5486 5490 5494 5497 5501 5504 5507 5510 5512 5514 5515 5516
5388 5381 5375 5372 5368 5364 5359 5354 5348 5343 5340 5337 5334 5331 5329 5332 5336 5340 5345 5349 5354 5361 5364 5373 5381 5389 5396 5403 5410 5416 5422 5428 5434 5439 5445 5451 5454 5459 5464 5469 5472 5476 5480 5484 5487 5491 5494 5496 5499 5501 5503 5505 5506 5507
5386 5380 5374 5370 5364 5359 5354 5347 5343 5339 5336 5331 5327 5325 5326 5331 5336 5341 5345 5349 5353 5358 5365 5372 5378 5386 5394 5400 5406 5413 5417 5423 5429 5435 5440 5444 5449 5454 5459 5463 5466 5470 5474 5477 5480 5483 5486 5488 5491 5492 5494 5495 5496 5497
5382 5377 5372 5366 5361 5356 5351 5346 5341 5337 5332 5327 5324 5325 5330 5334 5338 5341 5345 5348 5353 5359 5365 5371 5377 5383 5389 5396 5402 5408 5413 5418 5424 5431 5436 5440 5444 5447 5452 5456 5460 5463 5466 5470 5473 5475 5478 5480 5482 5483 5485 5485 5486 5486
5378 5374 5369 5364 5359 5355 5350 5346 5341 5334 5329 5327 5326 5329 5332 5336 5339 5342 5345 5349 5354 5360 5366 5371 5376 5381 5387 5393 5398 5404 5409 5414 5419 5426 5430 5433 5438 5442 5446 5450 5453 5456 5459 5462 5464 5467 5469 5471 5472 5473 5474 5475 5475 5475
5378 5373 5369 5364 5360 5355 5350 5346 5339 5332 5330 5330 5330 5333 5335 5339 5342 5344 5348 5352 5356 5361 5366 5371 5376 5381 5385 5390 5394 5400 5405 5411 5416 5420 5425 5429 5432 5436 5440 5443 5447 5449 5452 5455 5457 5459 5460 5462 5463 5464 5464 5464 5464 5463
5381 5376 5371 5366 5360 5356 5351 5346 5339 5334 5335 5334 5335 5337 5339 5340 5344 5347 5350 5354 5358 5362 5367 5371 5376 5380 5384 5389 5393 5398 5403 5408 5412 5416 5421 5424 5427 5431 5435 5438 5441 5444 5446 5448 5450 5451 5452 5453 5454 5454 5454 5453 5451 5450
5383 5378 5372 5366 5361 5357 5352 5348 5343 5340 5340 5339 5339 5340 5341 5343 5346 5350 5353 5356 5360 5363 5368 5372 5377 5381 5386 5390 5394 5398 5402 5406 5411 5415 5420 5423 5426 5428 5431 5434 5436 5438 5440 5442 5443 5444 5445 5445 5444 5444 5442 5441 5438 5436
5385 5378 5372 5366 5362 5357 5353 5349 5345 5344 5344 5344 5343 5344 5345 5347 5349 5352 5355 5358 5363 5366 5370 5374 5378 5383 5387 5391 5395 5398 5402 5406 5409 5413 5417 5420 5423 5426 5429 5431 5433 5434 5435 5436 5436 5436 5436 5435 5433 5432 5431 5428 5426 5422
5384 5378 5373 5367 5361 5358 5354 5352 5349 5347 5348 5347 5347 5348 5349 5351 5352 5354 5357 5360 5364 5369 5373 5377 5381 5384 5388 5392 5395 5399 5402 5406 5410 5413 5416 5419 5422 5424 5426 5427 5428 5429 5429 5429 5428 5428 5427 5425 5424 5422 5419 5416 5413 5410
5382 5378 5373 5368 5363 5359 5357 5354 5352 5349 5350 5350 5351 5352 5353 5353 5355 5357 5360 5363 5367 5371 5375 5379 5383 5386 5389 5393 5397 5400 5404 5408 5411 5414 5416 5418 5420 5421 5422 5422 5422 5422 5422 5422 5422 5421 5419 5417 5415 5412 5408 5404 5401 5398
5381 5377 5373 5369 5365 5362 5359 5358 5356 5353 5352 5353 5354 5356 5357 5358 5359 5361 5364 5367 5369 5373 5377 5380 5383 5387 5391 5394 5398 5401 5405 5408 5410 5412 5414 5415 5416 5416 5416 5416 5417 5418 5418 5417 5416 5414 5411 5408 5404 5400 5396 5393 5389 5387
5378 5374 5372 5369 5366 5363 5361 5360 5359 5358 5357 5356 5357 5358 5360 5361 5363 5365 5368 5370 5372 5376 5379 5382 5385 5389 5393 5396 5399 5402 5404 5407 5409 5410 5411 5411 5411 5412 5413 5414 5414 5414 5412 5411 5408 5405 5401 5398 5394 5390 5385 5382 5378 5376
5376 5373 5370 5368 5366 5364 5362 5361 5360 5360 5360 5360 5359 5359 5361 5363 5365 5367 5370 5372 5376 5379 5381 5384 5387 5391 5393 5396 5399 5401 5403 5405 5406 5407 5408 5409 5409 5410 5410 5410 5410 5409 5406 5404 5400 5397 5393 5388 5384 5379 5374 5370 5365 5361
5376 5372 5370 5368 5366 5364 5364 5363 5362 5362 5362 5362 5362 5362 5363 5364 5366 5369 5372 5375 5377 5379 5382 5385 5388 5390 5393 5396 5398 5400 5402 5402 5404 5405 5405 5406 5407 5407 5406 5405 5404 5402 5399 5396 5391 5387 5383 5378 5373 5369 5364 5360 5357 5354
5377 5373 5370 5368 5365 5363 5365 5364 5364 5364 5364 5364 5364 5364 5365 5366 5367 5370 5372 5375 5378 5380 5382 5385 5388 5390 5392 5394 5396 5397 5399 5400 5401 5402 5402 5403 5403 5402 5401 5400 5397 5394 5390 5387 5383 5380 5375 5370 5365 5362 5359 5357 5356 5355
5379 5375 5372 5368 5366 5363 5363 5364 5364 5364 5364 5363 5363 5363 5364 5366 5368 5370 5372 5374 5377 5379 5382 5384 5387 5389 5391 5393 5395 5396 5397 5398 5399 5399 5399 5398 5398 5397 5395 5393 5390 5387 5384 5381 5378 5375 5371 5366 5363 5362 5361 5360 5360 5360
5383 5378 5374 5371 5369 5366 5365 5364 5364 5365 5363 5362 5360 5360 5363 5366 5369 5371 5373 5375 5377 5379 5382 5384 5386 5388 5390 5391 5393 5394 5395 5395 5395 5395 5395 5394 5392 5391 5389 5387 5385 5382 5380 5379 5377 5375 5371 5368 5366 5365 5365 5365 5365 5365
5384 5379 5376 5373 5371 5370 5368 5366 5365 5365 5365 5363 5363 5363 5365 5367 5369 5371 5373 5375 5378 5380 5382 5384 5385 5387 5389 5390 5391 5391 5392 5392 5391 5391 5390 5388 5386 5384 5383 5381 5380 5380 5379 5378 5376 5374 5372 5371 5370 5369 5369 5368 5368 5368
5385 5381 5377 5374 5372 5371 5370 5368 5367 5366 5367 5367 5367 5367 5368 5369 5370 5372 5373 5375 5377 5379 5380 5382 5384 5385 5386 5387 5387 5387 5387 5387 5387 5386 5384 5383 5381 5380 5379 5379 5379 5378 5378 5377 5376 5374 5373 5373 5372 5372 5371 5371 5371 5372
5386 5382 5378 5376 5373 5371 5370 5369 5368 5367 5368 5369 5370 5370 5371 5372 5373 5374 5376 5377 5378 5379 5380 5381 5382 5383 5384 5385 5385 5385 5384 5384 5383 5382 5381 5379 5378 5378 5378 5378 5377 5378 5377 5376 5375 5375 5375 5375 5374 5373 5373 5373 5374 5375
5386 5382 5379 5376 5373 5371 5370 5369 5368 5368 5369 5370 5371 5371 5372 5372 5374 5376 5377 5378 5380 5381 5382 5382 5383 5384 5384 5384 5384 5384 5384 5383 5382 5381 5380 5379 5378 5378 5377 5377 5377 5377 5376 5376 5375 5375 5375 5375 5375 5375 5375 5375 5376 5378
5385 5381 5378 5375 5372 5370 5369 5369 5368 5368 5370 5372 5373 5374 5374 5374 5375 5376 5378 5379 5381 5382 5383 5383 5383 5383 5384 5384 5384 5383 5383 5382 5381 5380 5379 5378 5377 5377 5377 5377 5377 5376 5376 5376 5375 5376 5376 5376 5376 5375 5376 5377 5378 5380
5383 5380 5378 5375 5372 5369 5368 5368 5368 5369 5371 5373 5375 5376 5376 5376 5377 5377 5378 5380 5381 5382 5383 5383 5384 5384 5384 5384 5384 5383 5383 5382 5381 5380 5379 5378 5377 5377 5377 5377 5377 5376 5376 5375 5375 5376 5376 5376 5376 5376 5377 5378 5380 5382
5380 5378 5376 5374 5372 5369 5367 5367 5368 5369 5371 5374 5376 5378 5379 5379 5380 5380 5381 5382 5383 5383 5384 5384 5385 5385 5385 5385 5384 5384 5383 5382 5381 5380 5379 5377 5377 5376 5376 5376 5376 5376 5376 5375 5375 5376 5376 5376 5376 5376 5377 5378 5380 5382
5377 5376 5375 5374 5372 5369 5367 5367 5368 5370 5372 5375 5378 5379 5380 5381 5382 5382 5382 5383 5384 5384 5385 5385 5386 5386 5386 5386 5385 5385 5384 5383 5382 5381 5380 5378 5377 5376 5375 5375 5375 5375 5375 5375 5375 5375 5376 5376 5376 5376 5376 5377 5379 5381